White Plains, CT

3:07 PM EST on November 13, 2019 (GMT -0500)
Westchester County

Weather History for KHPN - September, 2019

Change the Weather History Date:

Tuesday, September 17, 2019

  Actual Average Record
Temperature  
Mean Temperature 64 °F -  
Max Temperature 75 °F 71 °F 89 °F (1991)
Min Temperature 54 °F 54 °F 42 °F (1986)
Growing Degree Days 14 (Base 50)    
Moisture  
Dew Point 45 °F    
Average Humidity 53    
Maximum Humidity 86    
Minimum Humidity 20    
Precipitation  
Precipitation 0.00 in - - ()
Sea Level Pressure  
Sea Level Pressure 30.12 in    
Wind  
Wind Speed 7 mph ()    
Max Wind Speed 16 mph    
Max Gust Speed 24 mph    
Visibility 10.0 miles    
Events      
Averages and records for this station are not official NWS values.
T = Trace of Precipitation, MM = Missing Value Source: Averaged Metar Reports

Daily Weather History Graph

Daily Weather History Graph

Search for Another Location

Airport or City:

Astronomy

Sep. 17, 2019 Rise Set
Actual Time 6:37 AM EDT 7:00 PM EDT
Civil Twilight 6:09 AM EDT 7:28 PM EDT
Nautical Twilight 5:37 AM EDT 8:00 PM EDT
Astronomical Twilight 5:03 AM EDT 8:34 PM EDT
Moon 9:01 PM EDT (9/17) 9:40 AM EDT (9/17)
Length of Visible Light 13h 19m
Length of Day
12h 23m
Waning Gibbous, 89% of the Moon is Illuminated
Sep 17
Waning Gibbous
Sep 21
Last Quarter
Sep 28
New
Oct 5
First Quarter
Oct 13
Full

Hourly Weather History & Observations

Time (EDT) Temp. Dew Point Humidity Pressure Visibility Wind Dir Wind Speed Gust Speed Precip Events Conditions
12:56 AM 63.0 °F 48.9 °F 60% 30.07 in 10.0 mi NE 4.6 mph - N/A   Mostly Cloudy
2:56 AM 60.1 °F 50.0 °F 69% 30.08 in 10.0 mi North 6.9 mph - N/A   Mostly Cloudy
3:56 AM 55.0 °F 50.0 °F 83% 30.09 in 10.0 mi NNW 6.9 mph - N/A   Clear
4:56 AM 55.0 °F 50.0 °F 83% 30.09 in 10.0 mi North 4.6 mph - N/A   Clear
5:56 AM 54.0 °F 50.0 °F 86% 30.11 in 10.0 mi North 8.1 mph - N/A   Clear
6:56 AM 55.0 °F 48.9 °F 80% 30.13 in 10.0 mi North 9.2 mph - N/A   Clear
7:56 AM 59.0 °F 48.9 °F 69% 30.14 in 10.0 mi North 10.4 mph - N/A   Clear
8:56 AM 63.0 °F 50.0 °F 63% 30.15 in 10.0 mi North 9.2 mph - N/A   Clear
9:56 AM 66.9 °F 46.9 °F 49% 30.15 in 10.0 mi North 6.9 mph - N/A   Clear
10:56 AM 70.0 °F 45.0 °F 41% 30.15 in 10.0 mi North 9.2 mph - N/A   Clear
11:56 AM 71.1 °F 44.1 °F 38% 30.14 in 10.0 mi North 10.4 mph - N/A   Clear
12:56 PM 73.0 °F 42.1 °F 33% 30.13 in 10.0 mi Variable 3.5 mph 17.3 mph N/A   Clear
1:56 PM 73.0 °F 41.0 °F 31% 30.12 in 10.0 mi North 11.5 mph 18.4 mph N/A   Clear
2:56 PM 75.0 °F 41.0 °F 29% 30.09 in 10.0 mi North 13.8 mph 20.7 mph N/A   Clear
3:56 PM 73.9 °F 34.0 °F 23% 30.09 in 10.0 mi North 16.1 mph 24.2 mph N/A   Clear
4:56 PM 73.0 °F 28.9 °F 20% 30.09 in 10.0 mi North 16.1 mph - N/A   Clear
5:56 PM 71.1 °F 37.9 °F 30% 30.10 in 10.0 mi North 8.1 mph - N/A   Clear
6:56 PM 66.9 °F 43.0 °F 42% 30.12 in 10.0 mi North 8.1 mph - N/A   Clear
7:56 PM 64.0 °F 44.1 °F 48% 30.12 in 10.0 mi Variable 3.5 mph - N/A   Clear
8:56 PM 63.0 °F 43.0 °F 48% 30.14 in 10.0 mi NE 4.6 mph - N/A   Clear
9:56 PM 61.0 °F 43.0 °F 52% 30.14 in 10.0 mi ENE 4.6 mph - N/A   Clear
10:56 PM 57.0 °F 46.9 °F 69% 30.16 in 10.0 mi Calm Calm - N/A   Clear
11:56 PM 55.0 °F 46.0 °F 72% 30.16 in 10.0 mi NW 3.5 mph - N/A   Clear